[[{"header":{"parameterUnit":"m.s-1","parameterCategory":1,"la1":30.2992,"la2":30.254,"lo1":-89.0895,"lo2":-89.0443,"dy":0.0025,"dx":0.0025,"nx":19,"ny":19,"refTime":"2026-03-09T09:00:00:Z","depth":0,"parameterNumber":2,"parameterNumberName":"U-component_of_WINDS"},"data":[0,0,0,-1.8154,-1.8157,-1.829,-1.829,-1.8455,-1.8457,0,0,0,0,0,0,0,0,0,0,0,-1.8109,-1.811,-1.8154,-1.8157,-1.829,-1.829,-1.8455,-1.8457,0,0,0,0,0,0,0,0,0,0,0,-1.8109,-1.811,-1.8111,-1.8157,-1.829,-1.829,-1.8455,-1.8357,0,0,0,0,0,0,0,0,0,0,-1.8229,-1.8181,-1.811,-1.8111,-1.8158,-1.8289,-1.829,-1.8352,-1.8363,-1.8392,0,-1.8415,0,-1.8438,-1.8467,-1.8468,0,0,0,-1.8161,-1.8172,-1.8213,-1.8111,-1.8159,-1.8289,-1.8231,-1.8358,-1.837,-1.8406,-1.8417,-1.8424,-1.8441,-1.8468,-1.8469,-1.8618,-1.8619,0,0,-1.8154,-1.8131,-1.8205,-1.8221,-1.8197,-1.8227,-1.8235,-1.8366,-1.8377,-1.8418,-1.8428,-1.8444,-1.8469,-1.8471,-1.8618,-1.8618,0,0,0,-1.813,-1.8125,-1.8163,-1.8214,-1.8238,-1.823,-1.824,-1.8371,-1.8385,-1.843,-1.8446,-1.847,-1.8472,-1.8617,-1.8618,-1.8617,0,0,0,-1.8126,-1.8111,-1.8159,-1.8146,-1.8235,-1.8306,-1.8242,-1.8376,-1.8392,-1.8445,-1.847,-1.8474,-1.8617,-1.8618,-1.8616,-1.862,0,0,0,-1.8102,-1.8109,-1.8126,-1.8145,-1.8201,-1.8304,-1.8326,-1.838,-1.8401,-1.8468,-1.8474,-1.8616,-1.8617,-1.8615,-1.8619,-1.8651,0,0,0,-1.8071,-1.8124,-1.8125,-1.8192,-1.82,-1.8302,-1.8325,-1.8403,-1.8461,-1.8471,-1.8617,-1.8618,-1.8615,-1.8618,-1.865,-1.8673,-1.8681,0,0,-1.8125,-1.813,-1.8171,-1.8176,-1.8271,-1.8284,-1.8381,-1.8457,-1.8486,-1.8573,-1.8577,-1.8616,-1.8619,-1.8651,-1.8736,-1.8741,0,0,0,-1.818,-1.8209,-1.8239,-1.8292,-1.835,-1.8401,-1.8464,-1.8492,-1.8567,-1.8525,-1.8639,-1.8641,-1.8661,-1.8673,-1.8678,-1.8697,-1.8623,-1.8623,-1.8623,-1.8221,-1.8255,-1.8325,-1.8374,-1.8425,-1.849,-1.8535,-1.8585,-1.8605,-1.8631,-1.8656,-1.8703,-1.8716,-1.872,-1.8739,-1.8673,-1.8673,-1.8673,-1.8673,-1.8302,-1.8348,-1.8373,-1.8449,-1.8485,-1.8551,-1.8617,-1.8629,-1.8696,-1.8687,-1.8706,-1.8692,-1.8726,-1.8744,-1.8673,-1.8673,-1.8673,-1.8673,-1.8673,-1.8331,-1.8359,-1.8392,-1.8471,-1.853,-1.858,-1.8643,-1.8674,-1.8705,-1.8724,-1.8754,-1.8754,-1.8757,-1.8737,-1.8737,-1.8737,-1.8737,-1.8737,-1.8738,-1.8347,-1.8385,-1.8433,-1.85,-1.8538,-1.8592,-1.866,-1.8699,-1.8751,-1.8769,-1.8769,-1.8786,-1.8723,-1.8705,-1.874,-1.874,-1.8739,-1.8739,-1.8739,-1.8413,-1.8404,-1.8477,-1.8515,-1.8597,-1.8653,-1.8693,-1.8771,-1.8808,-1.8839,-1.8853,-1.8801,-1.8809,-1.8805,-1.8791,-1.8846,-1.8846,-1.8846,-1.8846,-1.8436,-1.8444,-1.8526,-1.8585,-1.8647,-1.869,-1.8775,-1.8829,-1.8884,-1.891,-1.8907,-1.8891,-1.8886,-1.8897,-1.8891,-1.8878,-1.8954,-1.8954,-1.8954,-1.8478,-1.8493,-1.8557,-1.8608,-1.8675,-1.8732,-1.8813,-1.8881,-1.8942,-1.8959,-1.893,-1.8926,-1.8901,-1.8891,-1.8905,-1.8895,-1.8872,0,0]},{"header":{"parameterUnit":"m.s-1","parameterCategory":1,"la1":30.2992,"la2":30.254,"lo1":-89.0895,"lo2":-89.0443,"dy":0.0025,"dx":0.0025,"nx":19,"ny":19,"refTime":"2026-03-09T09:00:00:Z","depth":0,"parameterNumber":3,"parameterNumberName":"V-component_of_WINDS"},"data":[0,0,0,1.5493,1.5495,1.5593,1.5594,1.5714,1.5715,0,0,0,0,0,0,0,0,0,0,0,1.5458,1.5459,1.5493,1.5495,1.5593,1.5594,1.5714,1.5715,0,0,0,0,0,0,0,0,0,0,0,1.5458,1.5459,1.5459,1.5496,1.5593,1.5594,1.5714,1.5642,0,0,0,0,0,0,0,0,0,0,1.5548,1.5509,1.5458,1.5459,1.5496,1.5593,1.5594,1.5639,1.5647,1.5667,0,1.568,0,1.57,1.5723,1.5723,0,0,0,1.5501,1.5502,1.5534,1.5459,1.5497,1.5593,1.5551,1.5644,1.5652,1.5677,1.5682,1.5687,1.5702,1.5724,1.5724,1.5818,1.5818,0,0,1.5495,1.5473,1.5528,1.554,1.5521,1.5547,1.5554,1.5649,1.5654,1.5683,1.569,1.5704,1.5724,1.5725,1.5818,1.5818,0,0,0,1.5476,1.5469,1.5499,1.5534,1.5552,1.555,1.5557,1.565,1.5661,1.5691,1.5705,1.5725,1.5726,1.5818,1.5818,1.5805,0,0,0,1.5473,1.5458,1.5496,1.5483,1.555,1.5602,1.5556,1.5655,1.5666,1.5704,1.5725,1.5727,1.5817,1.5818,1.5805,1.5803,0,0,0,1.5454,1.5456,1.5467,1.5482,1.5523,1.56,1.5618,1.5658,1.5674,1.5723,1.5728,1.5817,1.5818,1.5805,1.5803,1.5822,0,0,0,1.5427,1.5455,1.5467,1.5504,1.5522,1.5591,1.5617,1.567,1.5711,1.5726,1.5818,1.5818,1.5805,1.5803,1.5821,1.5833,1.5836,0,0,1.5449,1.5456,1.548,1.5494,1.5555,1.5578,1.5639,1.5698,1.5725,1.5786,1.5789,1.5805,1.5803,1.5822,1.5859,1.5861,0,0,0,1.548,1.5496,1.5517,1.5554,1.56,1.564,1.5692,1.5715,1.5768,1.5751,1.5818,1.5818,1.583,1.5836,1.5838,1.585,1.582,1.582,1.582,1.5478,1.551,1.5552,1.5596,1.5632,1.5687,1.5721,1.5761,1.5783,1.5799,1.5816,1.5835,1.5842,1.5843,1.5856,1.5826,1.5826,1.5826,1.5826,1.5513,1.5542,1.5572,1.5623,1.5658,1.5703,1.5759,1.5773,1.5822,1.5823,1.5836,1.5834,1.5844,1.5857,1.5825,1.5825,1.5825,1.5825,1.5825,1.5515,1.5534,1.5561,1.562,1.5664,1.571,1.5755,1.5786,1.5816,1.5828,1.5852,1.5852,1.5856,1.5837,1.5837,1.5837,1.5838,1.5838,1.5838,1.5505,1.5536,1.5569,1.5622,1.5652,1.5696,1.5754,1.5786,1.5828,1.5848,1.5848,1.5869,1.5839,1.5831,1.5839,1.5839,1.5838,1.5838,1.5838,1.5527,1.5528,1.5579,1.5609,1.5676,1.5718,1.5758,1.582,1.5851,1.5873,1.5893,1.5866,1.5875,1.5874,1.5868,1.5885,1.5885,1.5885,1.5885,1.5528,1.5537,1.5598,1.5644,1.5693,1.5735,1.5796,1.5845,1.5894,1.5916,1.5919,1.5913,1.5911,1.5922,1.592,1.5915,1.5943,1.5943,1.5943,1.5545,1.556,1.5603,1.5651,1.5707,1.5755,1.5814,1.5869,1.5926,1.5946,1.5935,1.5932,1.5924,1.5919,1.5936,1.5932,1.5922,0,0]}]]